EHI
3 1 0 0 0 0 0 0 0 0 0 0 0 0 0 0 0 0 0 0 0 0 0 0 1 0 0 1 2 1 1 1 1 0 0 0 0 0 1 0 0 0 0 0 0 0 0 0 0
1 0 0 0 0 0 0 0 0 0 0 0 0 0 0 0 0 0 0 0 0 0 0 0 1 1 0 1 1 1 0 0 0 0 0 0 0 0 1 0 0 0 0 0 0 0 0 0 0
0 0 0 0 0 0 0 0 0 0 0 0 0 0 0 0 0 0 0 0 0 0 0 0 1 2 1 1 1 0 0 0 0 0 0 0 0 0 0 0 0 0 0 0 0 0 0 0 0
0 0 1 0 0 0 0 0 0 0 0 0 0 0 0 0 0 0 0 0 0 0 0 1 3 3 3 2 1 0 0 0 0 0 0 0 0 0 0 0 0 0 0 0 0 0 0 0 0
1 1 1 0 0 0 0 0 0 0 0 0 0 0 0 0 0 0 0 0 0 0 0 1 5 6 4 2 1 0 0 0 1 1 0 0 0 0 0 0 0 0 0 0 0 0 0 0 0
2 1 0 0 0 0 0 0 0 0 0 0 0 0 0 0 0 0 0 0 0 0 0 2 6 8 6 2 0 0 1 1 2 1 0 0 0 0 0 0 0 0 0 0 0 0 0 0 0
1 1 0 0 0 0 0 0 0 0 0 0 0 0 0 0 0 0 0 0 0 0 0 1 5 6 5 2 1 1 2 2 2 1 0 0 0 0 0 0 0 0 1 1 0 0 1 1 1
2 1 0 0 0 0 0 0 0 0 1 1 0 0 0 0 0 0 0 0 0 0 0 1 2 3 2 1 1 1 1 2 1 0 0 0 0 0 0 1 1 2 4 4 1 1 2 2 2
2 1 0 0 0 0 0 0 0 0 1 2 1 0 0 0 0 0 0 0 0 0 0 0 1 1 0 0 0 0 0 0 0 0 0 0 0 0 0 1 2 3 4 4 1 1 2 2 2
3 1 0 0 0 0 0 0 0 0 1 2 3 2 0 0 0 0 0 0 0 0 0 0 0 0 0 0 0 0 0 0 0 0 0 0 0 0 0 0 1 1 2 1 0 0 1 1 1
4 3 1 0 0 0 0 0 0 0 0 2 4 4 1 0 0 0 0 0 0 0 0 0 0 0 0 0 0 0 0 0 0 0 0 0 0 0 0 0 0 0 0 0 0 0 0 0 0
4 3 1 0 0 0 0 0 0 0 0 1 4 4 1 0 0 0 0 0 0 0 0 0 0 0 0 0 0 0 0 0 0 0 0 0 0 0 0 0 0 0 0 0 0 0 0 0 0
2 1 1 0 0 0 0 0 1 1 1 2 4 3 1 0 0 0 0 0 0 0 0 0 0 0 0 0 0 0 0 0 0 0 0 0 0 0 0 1 1 0 0 0 0 0 0 0 0
1 0 0 0 0 0 0 0 1 2 1 3 3 2 1 0 0 0 0 1 1 1 0 0 0 0 0 0 0 0 0 0 0 0 0 0 0 0 1 2 1 0 0 0 0 0 0 0 0
0 0 0 0 0 0 0 0 1 2 2 2 2 1 0 0 0 0 1 2 4 3 1 0 0 0 0 0 0 0 0 0 0 0 0 0 0 0 1 2 1 0 0 0 0 0 0 0 0
0 0 0 0 0 0 0 0 1 2 3 2 1 0 0 0 0 0 1 3 5 4 2 0 0 0 0 0 0 0 0 0 0 0 0 0 0 0 1 1 0 0 0 0 0 0 0 0 0
0 0 0 0 0 0 0 1 1 2 3 2 1 0 0 0 0 0 0 1 3 4 2 1 0 0 0 0 0 0 0 0 0 0 0 0 0 0 0 0 0 0 0 0 0 0 0 0 0
0 0 0 0 0 0 0 0 1 2 3 3 1 1 1 1 0 0 1 1 3 3 2 1 0 0 0 0 0 0 0 0 0 0 0 0 0 0 1 1 0 0 0 0 0 0 0 0 0
0 0 0 0 0 0 0 0 0 1 3 3 3 3 2 1 0 1 2 3 4 4 3 1 0 0 0 0 0 0 0 0 0 0 0 0 0 0 1 2 1 1 0 0 0 0 0 0 0
0 0 0 0 0 0 0 1 0 1 3 3 3 3 3 1 1 2 3 3 4 5 5 3 1 0 0 0 0 1 1 0 0 0 0 0 0 0 1 2 3 2 1 0 0 0 0 0 0
1 1 1 0 0 0 0 0 0 0 2 3 3 3 2 1 1 2 3 2 3 4 5 4 2 0 0 1 1 2 2 1 0 0 0 0 0 0 1 2 3 2 1 0 0 0 0 0 1
1 2 1 0 0 0 0 0 0 0 1 2 3 3 2 1 2 2 2 1 1 2 3 4 2 1 1 2 3 3 3 2 1 0 0 0 0 0 0 1 2 1 0 0 0 0 1 1 2
1 1 1 0 0 0 0 0 0 0 1 2 3 2 1 2 3 3 3 2 2 2 2 3 3 2 3 3 3 3 3 3 2 1 1 0 0 0 0 1 1 0 0 0 0 1 2 2 2
0 0 0 0 0 0 0 0 0 0 1 2 3 2 2 3 4 4 4 4 4 3 3 5 5 4 4 4 4 3 3 3 3 3 2 1 1 1 1 1 1 0 0 0 1 2 2 2 1
0 0 0 0 0 0 0 0 0 0 1 2 3 2 2 3 3 3 4 5 5 3 4 6 7 6 5 5 4 3 3 3 3 3 3 3 2 2 2 1 1 0 0 1 2 2 1 1 0
0 0 0 0 0 0 0 0 0 0 1 2 3 3 2 2 2 2 3 4 4 3 4 6 7 6 5 6 5 4 3 3 3 3 3 3 3 3 1 0 0 0 1 2 2 1 0 0 0
0 0 0 0 0 0 0 0 0 1 2 4 4 4 3 2 1 1 2 4 4 3 4 6 7 6 6 6 6 4 3 3 4 4 3 3 3 2 1 0 0 0 1 2 1 0 0 0 0
0 0 0 0 0 0 0 0 0 1 3 4 5 5 5 3 1 0 2 4 5 5 4 5 6 6 6 6 6 6 5 5 6 5 4 3 3 3 1 0 1 1 1 1 0 0 0 0 0
0 0 0 0 0 0 0 0 0 1 2 4 5 6 6 4 1 0 2 5 7 7 5 4 5 7 7 6 7 8 9 9 8 7 5 4 3 3 2 1 2 2 1 0 0 0 0 0 0
0 0 0 0 0 0 0 0 0 1 2 4 6 6 6 5 2 1 3 7 9 8 5 4 6 8 9 7 7 10 12 12 10 8 5 4 3 3 1 1 2 2 1 0 0 0 0 0 0
Wind_Speed
7 5 2 1 2 3 2 2 1 2 2 2 3 4 4 3 1 1 2 1 2 1 1 3 3 3 2 3 3 4 5 6 6 7 6 7 7 7 7 7 7 7 7 7 7 6 6 6 6
5 4 1 1 3 2 3 2 2 1 1 2 3 4 4 3 1 1 0 1 2 2 1 1 3 2 2 3 4 4 4 5 6 6 6 7 7 7 7 7 6 6 7 7 6 6 6 6 5
6 3 1 2 2 1 2 2 0 1 2 1 3 3 3 1 1 1 1 3 3 1 0 1 3 2 3 3 3 3 4 4 5 6 6 7 6 6 6 6 6 6 6 6 5 5 5 5 5
3 1 2 3 1 2 2 2 1 2 2 4 3 4 3 2 0 1 3 4 3 1 1 1 2 2 3 3 3 3 4 4 5 5 6 6 5 5 5 5 5 5 5 5 4 4 3 4 5
1 2 3 3 3 2 1 1 1 2 2 3 3 3 3 4 4 5 4 4 3 0 0 0 1 2 2 2 2 2 3 4 5 5 5 5 5 5 4 4 4 4 4 4 4 3 3 4 5
2 3 3 2 3 2 1 0 2 4 2 2 3 3 2 2 3 3 3 2 2 1 1 1 0 1 2 2 2 1 2 4 5 5 5 4 4 3 3 3 4 4 4 4 4 4 3 4 5
2 3 1 1 2 1 0 1 2 3 2 1 2 3 1 1 2 3 3 3 3 2 2 2 1 1 1 2 2 2 2 4 5 5 4 4 3 2 3 3 4 4 4 3 3 3 3 4 5
2 3 1 1 0 1 1 1 2 3 2 2 3 4 2 1 3 4 4 4 4 3 3 3 2 2 2 2 3 3 3 4 4 5 4 3 2 2 3 2 3 3 3 2 2 2 3 3 4
2 3 1 2 2 2 0 1 1 3 3 2 2 2 3 6 6 5 4 3 3 3 4 3 3 3 3 3 4 4 4 4 4 3 4 3 2 2 2 2 2 2 2 1 1 1 2 3 3
3 2 4 3 3 3 1 1 2 3 2 2 4 5 7 7 6 5 3 2 1 2 3 3 3 3 3 2 3 3 4 4 4 3 3 2 2 2 2 2 1 1 1 1 2 2 3 3 2
3 4 3 1 2 3 2 1 2 5 1 2 5 7 7 6 5 4 2 2 1 0 1 2 2 2 3 2 2 2 2 3 3 3 3 3 3 2 2 2 2 2 2 2 2 2 2 2 1
2 2 2 1 2 3 3 3 3 2 2 4 7 8 7 7 5 4 3 2 1 1 1 1 2 2 2 2 2 2 2 2 2 2 2 2 2 2 2 2 2 2 1 2 1 1 1 2 1
1 1 1 1 3 3 4 3 3 1 3 6 8 7 7 6 4 2 2 1 1 1 1 1 2 2 2 2 2 2 2 2 1 2 2 2 2 2 2 2 2 2 1 1 1 1 1 1 1
1 1 2 3 3 2 4 3 3 1 4 7 7 6 5 5 4 3 2 2 1 1 0 1 2 1 2 2 2 1 1 1 1 1 2 2 1 1 2 2 2 2 1 1 1 1 1 1 1
1 3 4 2 2 2 4 3 0 2 5 6 5 5 5 4 4 4 3 3 2 1 1 1 2 2 2 2 2 1 1 1 1 1 1 2 1 2 2 1 1 1 1 2 1 2 2 2 2
3 3 2 2 1 1 3 1 1 3 6 5 4 4 4 3 3 3 3 2 2 2 1 1 2 3 2 2 2 2 2 2 1 1 1 2 2 2 2 1 1 1 1 1 1 1 2 2 2
4 1 2 2 0 1 3 2 1 3 5 4 4 4 3 2 2 2 3 3 2 2 2 1 2 2 2 2 2 2 2 2 1 2 1 1 2 2 2 1 1 1 1 2 1 2 1 1 2
2 1 2 2 1 2 2 1 1 3 4 4 3 3 3 4 4 3 3 3 2 2 2 2 2 1 2 2 2 2 2 2 2 1 1 2 1 2 2 1 1 2 2 2 2 2 2 1 1
3 2 2 3 1 1 2 1 2 3 3 3 3 3 4 4 3 2 2 3 3 2 2 1 1 1 1 1 1 1 0 1 1 1 2 2 2 1 1 1 2 2 2 1 1 1 2 2 1
2 1 2 2 1 2 1 0 1 3 4 4 4 4 4 3 2 3 3 3 3 3 3 2 1 1 1 1 1 1 1 0 0 1 2 2 2 1 1 2 1 2 2 2 2 1 1 1 1
2 4 4 3 2 3 3 2 1 2 2 2 2 3 3 5 6 4 4 4 3 4 4 3 2 1 1 1 2 2 2 2 2 2 2 2 2 2 2 2 2 1 1 1 1 1 2 0 1
3 4 5 4 3 1 1 1 4 2 2 3 4 4 4 4 4 4 4 4 4 4 3 3 2 2 2 2 2 2 2 1 0 0 1 2 2 2 2 1 2 1 1 1 0 1 1 1 0
3 2 3 3 3 2 2 1 6 0 3 6 6 6 6 5 6 6 5 5 4 3 3 3 2 2 2 2 3 3 1 1 0 1 2 2 2 2 2 2 2 1 1 1 1 1 1 1 1
4 6 6 5 5 1 2 2 5 4 6 6 6 6 6 6 6 5 4 4 3 3 3 3 2 2 2 3 3 3 3 2 1 1 1 1 1 2 2 2 2 1 1 1 1 1 1 0 1
4 6 4 4 4 4 1 2 8 6 6 7 6 6 5 5 5 5 5 4 4 4 4 3 3 3 3 3 3 3 3 3 3 2 1 0 0 1 1 2 1 1 1 1 1 1 0 0 0
3 7 7 5 4 4 1 4 7 4 3 3 3 4 4 4 4 5 6 6 5 5 5 4 4 4 3 3 3 3 3 2 2 2 1 1 1 1 0 0 1 1 1 1 0 1 0 1 0
5 3 5 7 2 0 4 6 7 1 2 1 1 3 4 4 4 5 5 5 5 5 5 5 5 4 3 3 3 3 3 3 2 2 1 1 1 1 0 0 0 1 1 0 1 1 1 1 1
4 7 5 6 5 2 4 4 4 4 2 1 2 3 3 2 3 3 4 4 4 5 4 4 4 4 4 3 3 3 3 3 2 2 2 1 1 1 0 0 0 1 1 0 1 0 1 1 1
3 4 5 5 4 5 2 6 4 5 4 4 4 3 3 3 3 3 3 3 2 2 2 2 3 3 2 3 2 2 2 2 2 2 2 1 1 1 1 1 0 0 0 0 0 0 0 1 1
3 5 7 5 3 3 3 7 4 3 3 3 3 2 2 2 2 2 2 2 2 2 2 2 3 3 3 2 2 2 2 2 2 2 1 1 1 1 1 1 0 0 1 0 0 1 0 0 1
Wind_Direction
162 146 137 136 49 40 334 306 296 345 25 26 69 81 91 81 112 256 281 139 139 134 181 195 190 188 170 154 149 156 155 152 151 151 155 153 150 147 147 148 154 157 155 152 146 145 150 152 160
149 153 152 66 67 35 315 312 347 351 133 128 79 72 67 50 48 109 332 143 122 132 154 200 172 161 151 148 150 149 148 148 150 153 157 152 149 148 147 148 151 154 154 154 153 152 153 153 158
164 188 106 65 75 171 263 283 195 65 108 67 66 58 73 52 70 164 195 130 111 122 180 229 160 153 141 142 144 145 146 149 151 150 154 152 149 152 150 150 153 151 152 156 157 156 156 162 164
163 103 55 54 356 250 234 262 186 131 52 43 75 60 45 17 98 133 117 124 114 128 209 228 157 144 132 134 133 146 153 153 154 154 155 151 153 156 156 154 152 151 154 160 161 159 160 167 169
92 73 46 21 319 306 276 254 150 93 62 46 74 77 24 357 68 98 105 120 122 125 312 276 154 150 141 130 133 151 160 152 150 148 147 149 153 156 157 155 154 154 158 159 158 164 171 177 168
60 62 58 357 327 332 333 55 88 73 74 65 77 83 24 14 77 99 103 106 108 98 344 347 149 115 113 118 114 95 142 150 144 139 139 147 153 156 158 167 167 162 164 162 165 173 172 164 166
103 82 88 284 312 334 281 71 103 100 90 96 112 91 21 20 65 92 83 74 63 45 18 1 3 41 80 82 69 63 118 131 131 132 135 136 141 142 132 149 162 163 162 163 166 175 175 171 171
139 96 29 309 222 301 301 77 101 108 105 107 105 127 184 191 104 87 70 59 50 38 23 14 21 24 31 40 50 50 94 110 119 125 124 120 108 90 97 115 151 162 172 172 163 168 167 164 166
123 73 250 226 187 239 235 87 72 75 95 76 77 131 146 124 109 91 69 47 38 33 15 20 34 28 25 29 33 36 62 84 95 98 91 72 45 38 67 96 139 160 177 174 140 127 125 127 124
114 141 234 219 180 184 200 103 130 93 82 66 68 76 106 117 119 117 115 102 53 21 13 24 36 39 32 33 34 31 37 54 63 63 56 47 41 33 47 44 52 68 72 87 82 76 99 94 93
165 202 239 254 173 153 137 97 106 123 143 179 150 136 129 128 127 131 139 152 176 325 32 36 36 45 46 36 41 39 38 50 56 54 50 54 48 39 35 33 39 39 43 46 48 47 65 84 98
172 246 223 250 143 128 146 135 105 134 199 158 144 140 137 137 144 151 153 158 135 94 36 49 58 56 44 49 47 47 48 52 48 41 47 62 55 43 40 43 41 41 46 54 51 52 65 84 101
179 289 351 69 87 103 99 107 117 103 106 116 123 127 138 144 153 150 139 133 111 90 75 67 73 77 65 58 43 54 49 51 46 38 38 65 73 55 47 41 39 38 44 54 57 56 60 74 80
178 75 43 42 70 86 99 73 86 138 123 123 134 143 150 156 158 140 134 147 165 174 162 94 83 85 81 76 65 48 49 47 46 38 32 51 73 70 60 49 37 30 32 46 65 75 69 68 71
61 58 26 25 52 79 92 49 271 158 130 136 153 156 152 161 161 168 179 175 184 193 176 140 121 89 92 90 78 67 49 59 51 25 35 56 70 75 73 64 43 25 33 49 56 55 60 71 67
41 52 7 305 74 101 106 252 267 144 144 157 171 168 165 177 179 183 178 170 173 161 158 148 106 97 93 82 70 58 49 50 41 29 35 50 61 80 77 69 44 32 44 56 62 55 57 51 46
30 27 285 301 145 130 136 226 257 152 153 169 182 186 179 182 196 197 179 169 172 169 150 115 88 100 105 92 78 64 54 43 34 36 31 36 52 76 88 73 52 48 58 51 51 57 66 51 31
241 244 276 279 290 102 130 183 218 168 162 173 185 192 192 199 213 200 182 160 154 150 133 114 96 82 89 85 73 58 46 26 28 35 30 43 56 78 96 92 65 67 68 51 46 50 49 51 14
169 176 267 272 260 114 146 154 207 186 172 179 192 200 207 214 207 180 170 152 142 140 133 135 117 94 91 83 93 77 25 9 15 14 21 33 41 53 78 75 65 69 76 73 69 61 55 34 26
164 191 246 302 17 114 121 76 224 201 206 200 199 209 210 203 192 185 175 163 167 171 170 166 163 143 132 139 142 137 123 59 27 6 18 28 39 40 72 77 76 73 77 62 64 75 62 26 38
204 191 207 196 47 56 81 353 288 260 242 218 205 215 214 203 200 193 188 191 182 188 190 188 187 165 142 122 96 74 51 31 24 19 12 8 33 43 54 79 92 85 97 96 72 93 104 68 17
254 219 178 164 115 342 76 280 289 262 260 237 231 222 219 207 193 191 192 195 198 207 194 189 180 163 159 139 129 127 123 124 298 346 5 7 24 38 46 61 79 80 90 108 131 108 112 127 57
206 105 110 109 112 69 26 134 286 316 246 244 230 220 215 200 190 190 195 196 198 197 190 194 183 180 174 160 158 152 147 159 43 35 28 18 17 29 35 50 61 59 53 49 57 74 91 133 157
132 71 56 50 67 28 249 165 275 236 226 235 227 216 212 201 194 195 196 189 192 191 188 185 184 205 190 172 166 166 166 155 120 57 34 11 14 19 26 50 47 36 30 28 52 72 102 120 140
96 90 40 4 11 260 264 197 250 246 228 222 219 208 198 193 195 193 192 195 196 196 195 188 189 213 203 183 188 190 186 177 178 187 192 219 6 1 359 29 34 12 6 27 46 68 43 50 79
170 142 158 192 213 268 311 240 257 259 251 227 203 189 175 179 194 202 202 198 197 199 199 194 197 213 208 195 206 203 192 184 195 200 191 198 214 238 283 25 6 352 9 39 54 62 21 46 20
143 162 157 128 133 333 286 286 301 353 28 65 135 158 176 182 193 202 197 196 196 198 201 196 199 208 209 204 205 207 198 192 201 202 192 203 220 229 235 350 345 340 355 23 71 56 4 47 17
133 142 104 115 140 233 290 279 264 287 278 234 185 185 195 177 176 185 189 195 196 197 199 189 193 202 205 203 207 203 202 200 198 185 199 209 220 241 262 306 305 344 349 10 85 51 355 36 351
103 92 101 106 142 154 231 268 238 232 228 206 203 192 184 174 176 170 179 185 172 158 166 182 192 197 201 200 193 188 186 182 180 188 209 211 209 205 235 255 270 295 303 300 113 256 3 49 360
140 154 145 144 191 167 177 263 293 226 208 184 182 171 149 148 139 130 133 115 111 132 163 183 193 196 206 192 177 185 183 167 179 197 207 185 190 193 203 214 191 257 276 266 188 241 269 198 282